"Pseudo-MPEC" for CALU5A2

Created 2024 May 16 10:22:07 UT using Find_Orb

Click here for an explanation of pseudo-MPECs

 
 Astrometry: 
     CALU5A2*1C2024 05 14.42091217 29 18.078+25 47 52.84   ~5EAq 21.04GVNEOCPG96
     CALU5A2 1C2024 05 14.42607717 29 18.856+25 48 02.48   ~5EAq 21.12GVNEOCPG96
     CALU5A2 1C2024 05 14.43126317 29 19.662+25 48 11.30   ~5EAq 21.42GVNEOCPG96
     CALU5A2 1C2024 05 14.43643117 29 20.425+25 48 20.27   ~5EAq 21.02GVNEOCPG96
     CALU5A2 KC2024 05 14.45000017 29 22.488+25 48 43.27   ~5EBM 22.06GVNEOCPI52
     CALU5A2 KC2024 05 14.45207717 29 22.765+25 48 47.16   ~5EBM 21.93GVNEOCPI52
     CALU5A2  C2024 05 14.45214117 29 22.645+25 48 45.62   ~5EBM 21.1 GVNEOCPH01
     CALU5A2 KC2024 05 14.45414917 29 23.093+25 48 50.87   ~5EBM 22.17GVNEOCPI52
     CALU5A2  C2024 05 14.45620517 29 23.269+25 48 52.77   ~5EBM 21.0 GVNEOCPH01
     CALU5A2  C2024 05 14.45939617 29 23.753+25 48 58.28   ~5EBM 20.7 GVNEOCPH01
     CALU5A2  C2024 05 14.46286817 29 24.292+25 49 04.25   ~5EBM 20.8 GVNEOCPH01
     CALU5A2 1C2024 05 14.87134 17 30 37.72 +26 00 57.9    ~5ELb 21.0 VXNEOCP033
     CALU5A2 1C2024 05 14.87430 17 30 38.23 +26 01 03.4    ~5ELb 20.8 VXNEOCP033
     CALU5A2 1C2024 05 14.87725 17 30 38.71 +26 01 08.9    ~5ELb 20.7 VXNEOCP033
     CALU5A2 1C2024 05 14.97911 17 30 55.55 +26 04 19.6    ~5ENq 21.7 VXNEOCP033
     CALU5A2 1C2024 05 14.98130 17 30 55.91 +26 04 24.1    ~5ENq 21.0 VXNEOCP033
     CALU5A2 6C2024 05 15%-qJ.Kw`'S_VsbdZrn^AstrometryeD/Kb3XKjrxvQ_GHLy..,ndZ84
     CALU5A2 6C2024 05 15V(`OvDn@.@]AR.eK`bVFcXnjXVxdJj'D+0@OXa]xxX+,D0l`fl#EZ84
     CALU5A2 6C2024 05 15:mWqEuAa@_KfZTEulCsJ(%n8q.Y2XX%5Oredacted;Kdqf*M/:`dZ84
     CALU5A2 KC2024 05 15.25313017 31 45.505+26 12 50.54   ~5F6b 21.36GVNEOCPI52
     CALU5A2 KC2024 05 15.25469117 31 45.746+26 12 53.53   ~5F6b 20.40GVNEOCPI52
     CALU5A2 KC2024 05 15.25624817 31 45.973+26 12 56.63   ~5F6b 20.69GVNEOCPI52
     CALU5A2 KC2024 05 16_[0(TZe3)W^76In[)]0.[t`/TpI:4.ODj)X/pagUyWWLl+cWme8BH21
     CALU5A2 KC2024 05 16L!vv$70f@.WJf@tN-O'eclicka]kSC.06t#XX/Phere]F:IfHZj4H21
     CALU5A2 KC2024 05 16!e.nwMU5cX'MHU*[Ucj_jyI0G*for!5_@explanation,Gh]uxrmH21

Station data:
(033) Karl Schwarzschild Observatory, Tautenburg  (N50.980139 E11.711240)
   Germany.  Observer B. Stecklum. 1.34-m f/3 Schmidt + CCD.
(G96) Mt. Lemmon Survey  (N32.442729 W110.788720)  US/Arizona.  Observer E.
   J. Christensen. 1.5-m reflector + 10K CCD.
(H01) Magdalena Ridge Observatory, Socorro  (N33.984833 W107.189333)  US/New
   Mexico.  Observers W. H. Ryan, E. V. Ryan. Measurer W. H. Ryan. 2.4-m
   f/8.9 reflector + CCD.
(H21) Astronomical Research Observatory, Westfield  (N39.483054 W87.968270)
   US/Illinois.  Observer R. Holmes. Measurers S. Foglia, L. Buzzi, T.
   Linder, R. Holmes. 0.76-m f/3.0 astrograph + CCD0.81-m f/4.0 astrograph +
   CCD0.61-m f/4.5 astrograph + CCD0.40-m f/5.32 astrograph + CCD.
(I52) Steward Observatory, Mt. Lemmon Station  (N32.442570 W110.788920)
   US/Arizona.  Observers T. A. Pruyne, B. M. Africano, E. J. Christensen, G.
   A. Farneth, D. C. Fuls, A. R. Gibbs, A. D. Grauer, H. Gröller, J. A.
   Johnson, R. A. Kowalski, S. M. Larson, G. J. Leonard, D. Rankin, R. L.
   Seaman, F. C. Shelly, K. W. Wierzchoś. 1.0-m prime focus + CCD.
(Z84) Calar Alto-Schmidt  (N37.224046 W2.548210)  Spain.  Observer R. Kresken.
    Measurers E. Schwab, D. Koschny, M. Micheli. 0.8-m f/3 Schmidt + CCD.

Orbital elements:  CALU5A2
   Perihelion 2024 Jul 19.76857 +/- 0.124 TT = 18:26:44 (JD 2460511.26857)
Epoch 2024 May 16.0 TT = JDT 2460446.5   Earth MOID: 0.0325   Ma: 0.0621
M 324.45737064 +/- 0.32             (J2000 ecliptic)             AutoNEOCP
n   0.54876353 +/- 0.00395          Peri.  233.40015 +/- 0.14
a   1.47756258 +/- 0.0071           Node    82.66593 +/- 0.07
e   0.4227089 +/- 0.00309           Incl.   16.19797 +/- 0.07
P   1.80/656.01d           H 23.02  G  0.15   U  9.0
q 0.85298367 +/- 0.000624    Q 2.10214148 +/- 0.0146
From 25 observations 2024 May 14-16 (43.6 hr); mean residual 0".22
Residuals in arcseconds: 
240514 G96  .04-  .12-    240514 H01  .12-  .06-    240515 Z84  .17+  .07-    
240514 G96  .03-  .48+    240514 H01  .02-  .08-    240515 I52  .03+  .26-    
240514 G96  .30+  .23+    240514 033  .11+  .03-    240515 I52  .24-  .28-    
240514 G96  .07+  .17+    240514 033  .27+  .10-    240515 I52  .69-  .18-    
240514 I52  .20+  .44-    240514 033  .06+  .15-    240516 H21  .19+  .00     
240514 I52  .32-  .16-    240514 033  .24+  .09+    240516 H21  .16-  .18-    
240514 H01  .11-  .18-    240514 033  .28+  .53+    240516 H21  .06+  .18+    
240514 I52  .14-  .04-    240515 Z84  .02+  .20+    
240514 H01  .07-  .06-    240515 Z84  .14-  .32+    

Ephemerides (geocentric):
Date (UTC) HH   RA             Dec           delta  r     elong  mag " sig PA
---- --------  ------------   ------------  ------ ------ -----  --- --------
2024 05 16 10  17 35 22.274   +26 49 49.13  .17454 1.1211 125.3 21.3 .192 129
2024 05 16 11  17 35 30.522   +26 51 10.63  .17420 1.1209 125.3 21.3 .194 130
2024 05 16 12  17 35 38.800   +26 52 32.30  .17387 1.1206 125.3 21.3 .196 130
2024 05 16 13  17 35 47.108   +26 53 54.15  .17353 1.1203 125.2 21.3 .199 131
2024 05 16 14  17 35 55.446   +26 55 16.19  .17320 1.1201 125.2 21.2 .201 132
2024 05 16 15  17 36 03.815   +26 56 38.41  .17286 1.1198 125.2 21.2 .203 134
2024 05 16 16  17 36 12.214   +26 58 00.81  .17253 1.1195 125.2 21.2 .205 135
2024 05 16 17  17 36 20.644   +26 59 23.40  .17219 1.1192 125.2 21.2 .207 136
2024 05 16 18  17 36 29.104   +27 00 46.17  .17185 1.1190 125.1 21.2 .209 137
2024 05 16 19  17 36 37.596   +27 02 09.13  .17152 1.1187 125.1 21.2 .211 138
2024 05 16 20  17 36 46.119   +27 03 32.27  .17118 1.1184 125.1 21.2 .213 140
2024 05 16 21  17 36 54.674   +27 04 55.60  .17085 1.1182 125.1 21.2 .215 141
2024 05 16 22  17 37 03.261   +27 06 19.13  .17051 1.1179 125.0 21.2 .217 143
2024 05 16 23  17 37 11.879   +27 07 42.84  .17018 1.1176 125.0 21.2 .220 144
2024 05 17 00  17 37 20.530   +27 09 06.74  .16984 1.1174 125.0 21.2 .222 146
2024 05 17 01  17 37 29.213   +27 10 30.84  .16951 1.1171 125.0 21.2 .225 147
2024 05 17 02  17 37 37.928   +27 11 55.13  .16917 1.1168 124.9 21.2 .227 149
2024 05 17 03  17 37 46.677   +27 13 19.61  .16884 1.1165 124.9 21.2 .230 150
2024 05 17 04  17 37 55.458   +27 14 44.29  .16850 1.1163 124.9 21.2 .233 152
2024 05 17 05  17 38 04.273   +27 16 09.17  .16817 1.1160 124.9 21.2 .237 154
2024 05 17 06  17 38 13.121   +27 17 34.24  .16783 1.1157 124.8 21.2 .240 156
2024 05 17 07  17 38 22.003   +27 18 59.51  .16750 1.1155 124.8 21.2 .244 158
2024 05 17 08  17 38 30.919   +27 20 24.99  .16717 1.1152 124.8 21.2 .248 159
2024 05 17 09  17 38 39.869   +27 21 50.66  .16683 1.1149 124.8 21.2 .253 161
2024 05 17 10  17 38 48.854   +27 23 16.53  .16650 1.1147 124.7 21.2 .258 163
2024 05 17 11  17 38 57.872   +27 24 42.61  .16616 1.1144 124.7 21.2 .263 165
2024 05 17 12  17 39 06.926   +27 26 08.89  .16583 1.1141 124.7 21.2 .268 167
2024 05 17 13  17 39 16.015   +27 27 35.38  .16550 1.1139 124.7 21.2 .274 169
2024 05 17 14  17 39 25.139   +27 29 02.07  .16516 1.1136 124.6 21.2 .281 171
2024 05 17 15  17 39 34.299   +27 30 28.97  .16483 1.1133 124.6 21.2 .287 172
2024 05 17 16  17 39 43.495   +27 31 56.08  .16450 1.1131 124.6 21.1 .295 174
2024 05 17 17  17 39 52.726   +27 33 23.40  .16416 1.1128 124.6 21.1 .302 176
2024 05 17 18  17 40 01.994   +27 34 50.93  .16383 1.1125 124.5 21.1 .310 178
2024 05 17 19  17 40 11.298   +27 36 18.67  .16350 1.1122 124.5 21.1 .319   0
2024 05 17 20  17 40 20.639   +27 37 46.63  .16316 1.1120 124.5 21.1 .328   1
2024 05 17 21  17 40 30.018   +27 39 14.79  .16283 1.1117 124.5 21.1 .338   3
2024 05 17 22  17 40 39.433   +27 40 43.18  .16250 1.1114 124.4 21.1 .348   5
2024 05 17 23  17 40 48.886   +27 42 11.78  .16216 1.1112 124.4 21.1 .359   6
2024 05 18 00  17 40 58.377   +27 43 40.60  .16183 1.1109 124.4 21.1 .370   8
2024 05 18 01  17 41 07.905   +27 45 09.63  .16150 1.1106 124.3 21.1 .382   9
2024 05 18 02  17 41 17.472   +27 46 38.89  .16117 1.1104 124.3 21.1 .394  11
2024 05 18 03  17 41 27.078   +27 48 08.37  .16083 1.1101 124.3 21.1 .407  12
2024 05 18 04  17 41 36.722   +27 49 38.07  .16050 1.1098 124.3 21.1 .420  14
2024 05 18 05  17 41 46.406   +27 51 08.00  .16017 1.1096 124.2 21.1 .434  15
2024 05 18 06  17 41 56.128   +27 52 38.15  .15984 1.1093 124.2 21.1 .449  17
2024 05 18 07  17 42 05.891   +27 54 08.52  .15951 1.1090 124.2 21.1 .464  18
2024 05 18 08  17 42 15.693   +27 55 39.13  .15917 1.1088 124.2 21.1 .480  19
2024 05 18 09  17 42 25.536   +27 57 09.96  .15884 1.1085 124.1 21.1 .496  20